Location: Unspecified
(38.9820°N, 94.4650°W)
Time: 13:10:49
(UTC-05:00)

Okean 3 - Visible Passes

Search period start: 01 September 2015 00:00
Search period end: 11 September 2015 00:00
Orbit: 581 x 604 km, 82.5° (Epoch: 01 September)

Date Brightness Start Highest point End Pass type
(mag) Time Alt. Az. Time Alt. Az. Time Alt. Az.
01 Sep 6.5 04:24:04 10° ESE 04:25:34 12° E 04:27:19 10° ENE visible
01 Sep 3.7 05:58:19 10° SSW 06:02:28 50° W 06:06:41 10° N visible
02 Sep 6.1 04:31:31 10° SE 04:34:25 18° E 04:37:29 10° NE visible
02 Sep 4.3 06:07:40 10° SW 06:11:32 32° WNW 06:15:25 10° NNW visible
03 Sep 5.4 04:39:40 10° SSE 04:43:19 28° E 04:47:02 10° NNE visible
03 Sep 4.8 06:17:19 10° SW 06:20:41 21° WNW 06:23:57 10° NNW visible
04 Sep 4.6 04:49:16 17° SSE 04:52:13 43° E 04:56:20 10° NNE visible
05 Sep 3.7 04:59:00 28° S 05:01:09 70° E 05:05:27 10° NNE visible
06 Sep 3.4 05:08:39 40° SSW 05:10:07 74° W 05:14:27 10° N visible
07 Sep 6.3 03:41:37 13° E 03:42:12 13° E 03:44:17 10° ENE visible
07 Sep 3.8 05:18:15 40° WSW 05:19:08 46° W 05:23:19 10° N visible
08 Sep 5.8 03:51:09 20° E 03:51:09 20° E 03:54:15 10° NE visible
08 Sep 4.3 05:27:48 29° W 05:28:13 30° WNW 05:32:01 10° NNW visible
09 Sep 5.3 04:00:39 29° ENE 04:00:39 29° ENE 04:03:45 10° NNE visible
09 Sep 4.9 05:37:17 20° WNW 05:37:20 20° WNW 05:40:30 10° NNW visible
10 Sep 5.0 04:10:06 36° NE 04:10:06 36° NE 04:13:01 10° NNE visible
10 Sep 5.4 05:46:44 13° WNW 05:46:44 13° WNW 05:48:34 10° NW visible
